Date,TemperatureHighF,TemperatureAvgF,TemperatureLowF,DewpointHighF,DewpointAvgF,DewpointLowF,HumidityHigh,HumidityAvg,HumidityLow,PressureMaxIn,PressureMinIn,WindSpeedMaxMPH,WindSpeedAvgMPH,GustSpeedMaxMPH,PrecipitationSumIn
2012-1-1,48,39,30,45,35,29,95,88,76,29.71,29.28,3,0,3,0.10
2012-1-2,43,37,30,40,29,19,94,75,53,29.35,29.18,10,1,10,0.01
2012-1-3,30,20,7,19,7,-2,69,57,45,29.70,29.35,9,1,9,0.00
2012-1-4,29,17,5,12,4,-4,67,57,44,29.74,29.54,4,0,4,0.00
2012-1-5,36,27,20,24,17,10,75,65,56,29.58,29.39,7,1,7,0.00
2012-1-6,33,27,18,26,20,12,83,78,69,29.59,29.42,3,0,3,0.01
2012-1-7,48,32,25,38,26,21,89,81,63,29.53,29.33,2,0,2,0.00
2012-1-8,40,31,24,31,24,15,91,74,57,29.95,29.53,7,1,7,0.00
2012-1-9,36,25,17,23,17,11,82,71,56,29.97,29.61,3,0,3,0.00
2012-1-10,45,32,24,33,24,18,84,74,58,29.62,29.40,7,0,7,0.00
2012-1-11,37,31,22,26,21,15,78,68,54,29.80,29.61,4,0,4,0.00
2012-1-12,33,30,27,29,27,24,90,87,78,29.75,29.23,4,0,4,0.00
2012-1-13,37,31,27,34,27,21,94,86,73,29.25,28.80,11,1,11,0.15
2012-1-14,31,24,7,25,15,-2,79,70,59,29.71,29.16,11,1,11,0.00
2012-1-15,14,6,0,0,-4,-8,70,63,50,30.16,29.70,8,1,8,0.00
2012-1-16,30,16,0,22,6,-7,80,64,48,30.21,29.74,6,1,6,0.03
2012-1-17,43,35,28,36,30,22,94,84,72,29.74,29.07,4,0,4,0.25
2012-1-18,41,30,15,40,18,3,95,61,44,29.82,29.03,15,2,15,0.00
2012-1-19,30,19,6,21,11,0,85,70,55,29.98,29.62,10,1,10,0.00
2012-1-20,31,21,13,22,12,4,90,70,48,29.95,29.57,12,1,12,0.07
2012-1-21,20,15,6,13,8,1,82,72,62,30.03,29.82,1,0,1,0.00
2012-1-22,30,14,-3,20,6,-8,84,74,56,30.26,30.03,2,0,2,0.02
2012-1-23,33,28,20,31,24,15,92,86,80,30.18,29.53,2,0,2,0.00
2012-1-24,50,37,32,46,34,28,94,87,75,29.69,29.51,6,0,7,0.04
2012-1-25,38,34,30,29,27,24,81,74,64,29.86,29.68,8,1,8,0.00
2012-1-26,44,34,28,29,25,22,88,70,49,29.87,29.65,5,0,5,0.01
2012-1-27,37,34,32,35,32,29,95,92,81,29.65,28.97,9,1,9,0.85
2012-1-28,46,38,30,34,29,25,87,72,56,29.65,29.23,9,1,9,0.00
2012-1-29,42,33,24,30,20,17,80,60,41,29.69,29.51,9,2,9,0.00
2012-1-30,38,28,19,26,18,13,86,68,43,29.94,29.58,12,1,12,0.02
2012-1-31,34,28,19,28,23,13,87,83,77,29.93,29.69,2,0,2,0.02
2012-2-1,42,33,28,38,30,25,94,88,79,29.69,29.42,4,0,4,0.02
2012-2-2,43,35,28,32,27,20,87,73,61,29.88,29.60,6,1,6,0.00
2012-2-3,37,28,19,21,17,12,75,63,40,30.04,29.88,10,1,10,0.00
2012-2-4,40,29,21,24,17,9,84,62,40,29.90,29.81,9,1,9,0.00
2012-2-5,40,25,13,20,12,7,78,60,38,29.84,29.71,6,0,6,0.00
2012-2-6,52,33,18,32,21,12,85,63,39,29.71,29.45,7,1,7,0.00
2012-2-7,45,34,22,31,23,11,79,65,52,29.93,29.52,5,1,8,0.00
2012-2-8,41,27,14,19,13,6,76,56,34,29.96,29.71,3,0,5,0.00
2012-2-9,48,33,23,23,18,16,74,57,33,29.74,29.61,7,1,7,0.00
2012-2-10,53,33,18,33,20,14,85,62,31,29.75,29.53,8,1,8,0.00
2012-2-11,40,34,21,28,23,10,75,65,57,29.53,29.25,10,1,10,0.00
2012-2-12,25,16,10,10,1,-3,64,54,41,29.53,29.28,11,1,11,0.00
2012-2-13,42,26,11,21,12,0,72,58,39,29.63,29.41,12,1,12,0.00
2012-2-14,41,30,17,28,21,12,84,70,51,29.77,29.63,3,0,3,0.00
2012-2-15,38,33,31,30,26,24,82,77,71,29.91,29.76,0,0,0,0.00
2012-2-16,47,36,25,37,30,22,89,78,57,29.95,29.68,4,0,4,0.07
2012-2-17,49,39,28,44,31,21,93,74,49,29.68,29.50,10,1,10,0.02
2012-2-18,48,36,27,28,23,20,79,61,37,29.63,29.50,8,1,8,0.00
2012-2-19,45,32,26,25,20,16,77,60,42,29.74,29.63,11,1,11,0.00
2012-2-20,43,31,24,18,15,12,67,53,30,29.97,29.67,9,1,9,0.00
2012-2-21,44,32,18,29,20,13,83,64,41,29.98,29.51,8,1,8,0.00
2012-2-22,53,38,30,44,28,23,87,70,42,29.51,29.17,7,1,7,0.01
2012-2-23,49,37,30,44,30,23,91,74,54,29.45,29.03,15,1,15,0.08
2012-2-24,36,33,29,34,28,23,94,84,75,29.46,28.88,5,0,5,0.59
2012-2-25,42,34,27,32,27,16,93,76,59,29.46,28.84,11,2,11,0.24
2012-2-26,39,28,20,17,10,4,70,48,26,30.10,29.46,12,2,12,0.01
2012-2-27,41,29,17,26,18,9,78,64,50,30.12,29.69,5,0,6,0.00
2012-2-28,44,35,26,30,21,14,80,58,38,30.06,29.69,9,1,9,0.00
2012-2-29,34,30,26,27,22,15,89,75,63,30.05,29.64,5,0,5,0.00
2012-3-1,30,26,22,28,23,18,91,86,79,29.72,29.51,0,0,0,0.00
2012-3-2,33,26,19,25,20,15,87,80,69,29.82,29.64,4,0,4,0.00
2012-3-3,42,34,29,38,31,25,93,91,86,29.64,29.02,3,0,3,0.41
2012-3-4,45,33,24,33,26,21,92,78,55,29.33,29.19,6,0,6,0.09
2012-3-5,36,27,18,22,15,6,76,61,45,29.99,29.29,13,1,13,0.00
2012-3-6,39,24,10,17,9,3,73,54,29,30.23,29.99,7,1,7,0.00
2012-3-7,60,38,18,37,25,11,78,61,39,30.22,29.86,7,1,7,0.00
2012-3-8,68,53,32,49,42,28,92,68,48,29.86,29.29,13,3,13,0.00
2012-3-9,60,39,30,48,25,16,79,59,39,29.81,29.30,8,1,8,0.01
2012-3-10,40,32,25,27,23,18,85,68,48,30.16,29.81,5,1,5,0.02
2012-3-11,59,41,24,31,26,19,81,57,31,30.14,29.88,9,1,9,0.00
2012-3-12,73,49,29,43,33,24,82,58,29,29.93,29.76,8,0,8,0.00
2012-3-13,76,55,43,55,44,36,87,69,47,29.78,29.52,8,1,8,0.01
2012-3-14,65,47,38,51,42,36,92,83,53,29.94,29.63,8,1,8,0.00
2012-3-15,47,40,35,38,34,30,90,80,68,30.05,29.93,4,1,4,0.00
2012-3-16,42,39,36,38,35,31,91,85,75,30.02,29.76,5,0,5,0.13
2012-3-17,52,41,32,46,37,30,95,87,72,30.04,29.84,4,0,4,0.00
2012-3-18,81,53,32,57,42,30,94,71,34,29.99,29.79,5,1,5,0.00
2012-3-19,85,57,40,58,45,36,90,68,36,29.97,29.79,10,1,10,0.00
2012-3-20,82,58,39,58,47,35,88,70,42,29.98,29.86,6,1,6,0.00
2012-3-21,87,64,45,60,48,37,91,63,23,30.00,29.87,5,1,5,0.00
2012-3-22,88,66,46,62,51,42,91,62,32,29.90,29.66,8,1,8,0.00
2012-3-23,76,63,51,54,38,23,72,44,19,29.82,29.69,10,1,10,0.00
2012-3-24,61,52,47,33,28,21,56,39,29,29.83,29.71,6,1,6,0.00
2012-3-25,48,44,40,40,37,32,86,76,56,29.71,29.40,4,0,4,0.18
2012-3-26,44,37,30,39,23,5,93,60,35,29.67,29.28,14,2,14,0.00
2012-3-27,48,34,23,11,5,1,43,30,16,29.85,29.67,11,2,11,0.00
2012-3-28,48,39,32,34,26,11,78,61,40,29.82,29.25,8,0,8,0.00
2012-3-29,47,41,37,35,32,28,84,71,57,29.59,29.24,7,1,7,0.02
2012-3-30,51,40,31,29,19,11,75,47,24,29.72,29.58,11,1,11,0.00
2012-3-31,50,40,31,31,24,19,75,54,44,29.73,29.55,6,1,6,0.00
2012-4-1,61,41,25,38,29,20,85,66,29,29.56,29.32,5,1,5,0.07
2012-4-2,57,44,32,38,27,13,89,57,24,29.50,29.29,13,1,13,0.00
2012-4-3,62,43,27,21,16,12,61,37,19,29.53,29.40,11,1,11,0.00
2012-4-4,65,48,33,32,25,18,69,43,22,29.41,29.15,9,1,9,0.00
2012-4-5,53,41,32,32,25,20,74,56,37,29.57,29.32,13,1,13,0.00
2012-4-6,55,40,28,28,22,18,76,51,29,29.67,29.55,11,1,11,0.00
2012-4-7,60,42,28,29,23,17,68,48,29,29.70,29.60,9,1,9,0.00
2012-4-8,52,44,38,30,27,24,63,52,40,29.66,29.26,9,1,9,0.00
2012-4-9,56,44,32,37,32,25,84,63,45,29.27,29.13,12,2,12,0.00
2012-4-10,60,47,36,37,32,28,74,55,40,29.43,29.24,8,2,8,0.00
2012-4-11,66,44,29,40,33,24,86,68,34,29.58,29.42,10,1,10,0.03
2012-4-12,42,42,40,38,38,37,88,87,85,29.58,29.56,1,0,1,0.00
2012-4-13,65,53,40,29,26,23,60,37,24,29.75,29.68,9,1,9,0.00
2012-4-14,76,52,30,40,29,23,82,48,18,29.81,29.62,7,1,10,0.00
2012-4-15,82,63,41,53,45,33,74,53,34,29.66,29.56,9,1,9,0.00
2012-4-16,93,74,56,65,55,50,86,55,27,29.67,29.53,9,2,9,0.00
2012-4-17,85,69,55,54,41,26,83,41,16,29.85,29.54,9,2,9,0.00
2012-4-18,66,54,42,36,32,27,68,44,30,29.92,29.78,6,1,6,0.00
2012-4-19,78,55,35,46,37,30,84,57,21,29.81,29.61,6,1,6,0.00
2012-4-20,85,62,40,55,43,35,87,56,25,29.66,29.53,11,2,11,0.00
2012-4-21,82,66,53,57,51,45,75,59,40,29.56,29.32,10,2,10,0.00
2012-4-22,59,48,42,50,44,39,91,86,70,29.54,29.37,8,1,8,0.82
2012-4-23,59,48,39,58,46,37,95,93,86,29.43,28.96,9,2,9,1.34
2012-4-24,56,48,40,45,38,32,88,69,46,29.35,29.03,10,2,10,0.01
2012-4-25,62,47,34,42,35,30,91,65,38,29.54,29.35,8,1,10,0.00
2012-4-26,71,49,31,45,37,28,89,68,30,29.61,29.24,10,1,10,0.17
2012-4-27,55,46,36,46,36,24,91,69,47,29.68,29.17,11,2,11,0.16
2012-4-28,58,44,33,28,23,16,63,45,24,29.78,29.67,13,2,13,0.00
2012-4-29,61,45,30,28,20,10,76,42,17,29.90,29.68,11,2,11,0.00
2012-4-30,69,51,31,33,26,17,62,40,23,29.99,29.85,7,1,7,0.00
2012-5-1,52,45,42,43,40,33,91,83,49,29.87,29.77,4,1,4,0.71
2012-5-2,51,46,43,46,42,40,91,88,81,29.91,29.83,3,0,4,0.00
2012-5-3,54,52,49,50,49,47,93,88,86,29.87,29.77,4,1,4,0.01
2012-5-4,56,52,49,53,50,47,95,93,89,29.78,29.61,3,0,3,0.14
2012-5-5,70,59,49,59,52,48,94,78,56,29.78,29.62,5,1,5,0.00
2012-5-6,74,59,48,52,46,41,90,67,40,29.81,29.71,6,1,6,0.00
2012-5-7,78,58,38,54,42,35,89,61,32,29.82,29.72,6,1,6,0.00
2012-5-8,54,51,48,52,47,39,95,86,57,29.75,29.53,3,0,5,0.95
2012-5-9,63,57,50,60,54,48,95,93,87,29.53,29.28,2,0,2,0.02
2012-5-10,59,53,46,58,51,43,95,92,88,29.34,29.19,2,0,2,0.74
2012-5-11,64,52,40,44,40,36,94,68,38,29.72,29.34,8,1,8,0.01
2012-5-12,82,58,34,47,40,31,91,59,25,29.81,29.70,10,1,10,0.00
2012-5-13,87,66,46,60,50,42,87,62,31,29.84,29.71,5,1,5,0.00
2012-5-14,68,60,55,60,54,49,90,82,69,29.87,29.79,5,0,5,0.19
2012-5-15,71,62,57,62,57,54,95,85,63,29.83,29.64,8,1,8,0.59
2012-5-16,72,63,58,65,60,55,95,89,76,29.64,29.46,5,0,5,0.49
2012-5-17,71,58,46,56,45,37,94,65,35,29.84,29.55,8,1,8,0.01
2012-5-18,79,58,38,52,43,35,90,62,32,29.93,29.81,6,1,6,0.00
2012-5-19,89,65,44,60,49,40,87,61,31,29.86,29.78,6,1,6,0.00
2012-5-20,92,69,50,66,53,46,88,61,34,29.99,29.84,6,1,6,0.00
2012-5-21,84,64,49,62,53,44,86,69,37,29.98,29.77,8,1,8,0.00
2012-5-22,68,63,59,64,60,56,93,89,86,29.77,29.54,3,0,3,0.33
2012-5-23,85,69,61,71,63,59,94,81,58,29.74,29.54,5,0,5,0.00
2012-5-24,81,67,58,69,61,56,93,81,65,29.94,29.74,6,1,6,0.00
2012-5-25,71,64,59,66,61,57,93,89,82,29.95,29.75,4,1,4,0.03
2012-5-26,90,73,61,72,61,50,96,71,31,29.80,29.72,5,1,5,0.00
2012-5-27,88,69,54,62,56,50,88,65,39,29.88,29.71,9,1,9,0.00
2012-5-28,86,69,56,62,55,50,82,63,41,29.74,29.60,5,1,5,0.00
2012-5-29,68,62,58,62,58,54,94,87,75,29.66,29.41,6,0,6,0.55
2012-5-30,80,67,60,68,62,58,95,84,55,29.43,29.37,3,0,3,0.01
2012-5-31,86,69,58,63,56,48,93,67,39,29.65,29.41,7,1,7,0.00
2012-6-1,83,63,50,54,48,44,86,60,33,29.77,29.64,7,1,7,0.00
2012-6-2,58,55,53,56,52,45,95,88,64,29.71,29.39,5,1,5,1.93
2012-6-3,60,57,53,56,53,50,95,88,78,29.41,29.36,4,1,4,0.04
2012-6-4,54,52,50,52,49,47,93,90,86,29.51,29.34,3,0,3,0.23
2012-6-5,60,54,49,56,51,47,95,90,81,29.62,29.48,3,0,3,0.12
2012-6-6,67,56,48,61,52,46,96,86,61,29.68,29.60,4,0,4,0.27
2012-6-7,78,59,50,64,55,48,95,86,56,29.67,29.58,5,0,5,0.17
2012-6-8,84,65,54,65,57,52,93,76,46,29.62,29.41,7,1,7,0.00
2012-6-9,84,66,51,59,52,48,92,66,36,29.65,29.47,6,1,6,0.01
2012-6-10,89,67,49,62,52,45,90,62,32,29.91,29.64,4,1,4,0.00
2012-6-11,78,67,55,60,55,49,84,67,46,29.97,29.86,7,1,7,0.00
2012-6-12,82,69,58,63,58,52,89,70,52,29.87,29.64,8,1,8,0.00
2012-6-13,75,65,61,70,62,58,94,91,82,29.77,29.58,3,0,5,0.00
2012-6-14,83,67,56,64,57,53,94,73,47,29.97,29.77,3,0,3,0.00
2012-6-15,85,66,50,58,53,46,91,67,36,30.02,29.95,6,0,6,0.00
2012-6-16,81,63,52,63,54,48,89,73,49,30.04,29.97,6,1,6,0.00
2012-6-17,80,62,51,60,52,46,89,72,47,29.98,29.79,7,1,7,0.00
2012-6-18,69,59,52,57,52,47,86,78,62,29.85,29.77,5,1,5,0.00
2012-6-19,80,68,57,66,60,53,88,78,61,29.83,29.67,6,1,6,0.00
2012-6-20,102,80,63,76,69,60,91,71,38,29.69,29.56,4,0,4,0.00
2012-6-21,100,83,70,75,71,66,89,70,42,29.56,29.42,9,1,9,0.00
2012-6-22,99,81,67,74,68,60,91,67,38,29.48,29.39,9,1,9,0.02
2012-6-23,94,74,62,68,61,56,87,67,35,29.60,29.46,8,0,8,0.09
2012-6-24,91,71,56,63,58,53,92,67,32,29.61,29.54,4,0,4,0.01
2012-6-25,68,65,60,64,61,57,91,87,78,29.54,29.32,5,0,5,0.34
2012-6-26,72,63,56,62,56,53,93,81,65,29.34,29.22,5,1,5,0.00
2012-6-27,76,64,59,60,56,53,85,74,56,29.35,28.97,5,1,5,0.01
2012-6-28,85,69,58,63,58,54,89,71,46,29.34,29.14,6,1,6,0.00
2012-6-29,88,77,67,64,60,58,73,57,43,29.33,29.21,5,1,5,0.00
2012-6-30,92,75,58,64,60,54,90,63,34,29.39,29.30,9,1,9,0.00
2012-7-1,97,76,62,65,62,58,89,64,29,29.52,29.38,5,1,5,0.00
2012-7-2,90,74,65,67,62,58,86,67,41,29.61,29.50,7,0,7,0.11
2012-7-3,89,71,58,68,60,55,92,70,38,29.61,29.51,5,0,5,0.11
2012-7-4,91,73,62,75,66,58,91,78,52,29.53,29.35,4,0,4,0.86
2012-7-5,85,73,64,70,65,61,95,78,56,29.54,29.36,4,1,4,0.00
2012-7-6,93,75,60,72,65,58,92,74,45,29.61,29.48,4,0,4,0.00
2012-7-7,81,74,68,74,68,64,91,82,65,29.49,29.41,4,0,4,0.00
2012-7-8,90,74,61,68,61,53,93,67,40,29.58,29.47,5,1,5,0.00
2012-7-9,88,69,54,59,53,48,88,61,32,29.69,29.57,6,1,6,0.00
2012-7-10,89,68,50,61,53,46,87,64,31,29.77,29.68,5,0,5,0.00
2012-7-11,95,72,54,68,57,51,89,64,31,29.86,29.76,5,0,5,0.00
2012-7-12,97,76,59,73,62,55,88,66,33,29.86,29.74,3,0,3,0.00
2012-7-13,98,77,62,73,66,58,89,70,40,29.86,29.76,6,0,6,0.00
2012-7-14,96,78,68,73,68,64,89,73,42,29.82,29.72,3,0,3,0.00
2012-7-15,97,77,64,75,67,60,91,74,42,29.77,29.54,4,0,4,0.53
2012-7-16,94,78,69,75,71,66,93,79,51,29.54,29.42,3,0,3,0.03
2012-7-17,95,78,67,76,70,64,93,78,48,29.46,29.28,7,1,7,0.19
2012-7-18,89,76,67,74,69,59,95,80,59,29.61,29.35,4,0,4,0.01
2012-7-19,87,70,56,63,57,53,89,66,39,29.72,29.59,5,0,5,0.00
2012-7-20,82,67,56,60,56,52,87,70,44,29.78,29.71,5,0,5,0.00
2012-7-21,91,70,53,64,56,50,92,65,36,29.79,29.72,7,1,7,0.00
2012-7-22,93,74,57,70,60,53,87,65,42,29.80,29.70,5,1,5,0.00
2012-7-23,94,78,66,74,67,60,91,72,48,29.75,29.43,6,1,6,0.04
2012-7-24,91,76,65,76,67,56,92,74,49,29.44,29.23,5,1,5,0.18
2012-7-25,86,70,59,61,56,53,83,63,39,29.52,29.41,8,1,8,0.00
2012-7-26,77,69,62,67,62,56,92,80,70,29.48,29.30,3,0,3,0.73
2012-7-27,76,69,66,72,66,63,95,91,82,29.59,29.30,3,0,3,0.06
2012-7-28,81,71,67,73,67,65,95,88,69,29.68,29.58,3,0,3,0.05
2012-7-29,75,68,61,71,65,59,95,91,82,29.77,29.62,2,0,2,0.17
2012-7-30,90,72,60,73,64,58,96,79,53,29.81,29.71,5,1,5,0.00
2012-7-31,88,72,61,68,63,58,93,75,45,29.78,29.61,7,1,7,0.00
2012-8-1,87,74,66,71,67,63,91,79,57,29.62,29.50,5,1,5,0.00
2012-8-2,96,79,68,76,69,65,93,74,45,29.57,29.48,4,0,4,0.00
2012-8-3,95,78,65,74,68,62,92,74,43,29.76,29.57,5,0,5,0.00
2012-8-4,98,77,67,75,69,64,91,78,46,29.91,29.76,8,0,8,0.02
2012-8-5,94,75,65,78,70,62,94,84,51,29.89,29.57,10,1,10,0.37
2012-8-6,82,72,62,71,64,58,94,77,54,29.67,29.56,4,0,4,0.03
2012-8-7,90,71,56,69,61,53,93,73,45,29.70,29.59,5,0,6,0.00
2012-8-8,92,73,58,71,62,55,92,71,39,29.68,29.60,4,0,4,0.00
2012-8-9,94,75,63,76,67,59,91,76,51,29.64,29.54,4,0,4,0.00
2012-8-10,86,74,68,74,70,67,95,87,66,29.60,29.46,6,1,6,2.05
2012-8-11,84,73,67,76,70,66,96,90,73,29.62,29.47,5,0,5,1.47
2012-8-12,83,73,68,78,70,66,97,92,78,29.61,29.51,7,0,7,0.30
2012-8-13,89,74,64,72,66,62,96,80,52,29.62,29.55,6,0,6,0.00
2012-8-14,90,73,62,72,65,59,94,79,53,29.63,29.56,5,0,5,0.00
2012-8-15,88,74,67,74,68,64,94,81,55,29.59,29.51,5,0,5,0.13
2012-8-16,87,73,64,71,66,61,94,81,54,29.55,29.46,4,0,4,0.18
2012-8-17,91,72,58,72,64,56,93,79,49,29.52,29.39,6,1,6,0.29
2012-8-18,83,70,59,69,63,54,94,79,50,29.58,29.49,4,0,4,0.07
2012-8-19,82,65,52,63,56,49,93,76,49,29.66,29.58,4,0,4,0.00
2012-8-20,84,66,53,66,58,50,92,77,45,29.60,29.51,4,0,4,0.00
2012-8-21,87,70,60,67,61,56,92,75,42,29.77,29.56,3,0,3,0.00
2012-8-22,89,68,53,66,57,50,92,72,35,29.82,29.76,3,0,3,0.00
2012-8-23,90,70,56,70,61,52,93,76,43,29.81,29.74,4,0,4,0.00
2012-8-24,92,72,58,70,63,55,93,75,45,29.90,29.79,4,0,4,0.00
2012-8-25,86,72,62,71,63,57,92,75,54,30.02,29.90,5,1,5,0.00
2012-8-26,91,71,58,72,62,54,91,75,49,30.02,29.90,5,0,5,0.00
2012-8-27,93,73,57,71,63,54,93,73,42,29.90,29.59,6,1,6,0.00
2012-8-28,90,74,62,74,66,56,93,79,50,29.59,29.41,4,0,4,0.19
2012-8-29,82,64,52,57,53,48,88,69,38,29.66,29.57,5,1,5,0.00
2012-8-30,86,66,50,61,54,46,92,70,38,29.69,29.60,4,1,6,0.00
2012-8-31,87,70,54,68,60,51,93,73,45,29.62,29.46,5,1,5,0.00
2012-9-1,84,71,59,68,62,54,93,75,53,29.80,29.54,5,0,5,0.00
2012-9-2,80,66,58,63,58,54,89,77,55,29.85,29.75,4,0,4,0.00
2012-9-3,82,68,60,63,59,56,89,73,49,29.91,29.80,6,1,6,0.00
2012-9-4,67,64,60,65,61,56,94,92,84,29.82,29.54,3,0,3,0.69
2012-9-5,77,72,65,73,68,63,97,88,76,29.54,29.35,5,1,5,0.53
2012-9-6,78,70,66,70,67,64,95,88,75,29.59,29.51,4,0,4,0.18
2012-9-7,87,71,61,72,65,60,96,83,50,29.61,29.53,3,0,3,0.01
2012-9-8,85,72,63,71,67,60,96,84,59,29.57,29.27,13,1,13,0.32
2012-9-9,76,64,55,62,58,52,94,83,55,29.54,29.37,4,0,4,0.04
2012-9-10,68,58,51,56,50,45,92,77,55,29.73,29.53,7,1,7,0.00
2012-9-11,80,59,43,55,47,40,92,70,35,29.93,29.72,4,0,4,0.00
2012-9-12,84,61,45,62,52,43,93,75,41,30.02,29.93,5,0,5,0.00
2012-9-13,90,66,50,69,57,47,93,76,44,30.02,29.91,4,0,4,0.00
2012-9-14,88,68,54,70,59,51,93,76,47,29.93,29.72,5,0,5,0.00
2012-9-15,75,62,50,59,53,44,93,73,45,29.73,29.66,5,1,5,0.03
2012-9-16,73,54,44,50,44,40,93,72,38,29.77,29.66,5,0,5,0.01
2012-9-17,80,57,38,58,48,35,91,74,45,29.76,29.67,4,0,4,0.00
2012-9-18,71,61,50,68,58,47,94,90,84,29.72,29.31,10,1,10,0.44
2012-9-19,74,62,47,68,53,42,95,73,43,29.88,29.32,5,1,5,0.21
2012-9-20,72,53,40,51,44,37,93,73,43,29.95,29.82,5,0,5,0.00
2012-9-21,73,54,43,56,48,39,91,79,53,29.85,29.74,6,0,6,0.00
2012-9-22,76,60,47,63,54,44,93,82,61,29.75,29.48,6,0,6,0.00
2012-9-23,74,61,46,61,51,42,93,73,39,29.76,29.47,8,1,8,0.23
2012-9-24,72,51,38,53,43,36,93,75,40,29.79,29.70,4,0,4,0.00
2012-9-25,76,54,37,54,43,34,94,72,34,29.80,29.72,7,1,7,0.00
2012-9-26,72,62,53,63,57,48,94,84,70,29.78,29.64,6,0,6,0.02
2012-9-27,73,59,45,58,49,40,93,73,44,29.93,29.66,6,1,6,0.01
2012-9-28,53,48,41,51,46,38,95,92,85,29.95,29.71,2,0,2,1.04
2012-9-29,58,54,51,56,52,49,96,94,90,29.71,29.55,4,0,4,0.07
2012-9-30,59,55,50,57,53,48,96,94,91,29.60,29.34,2,0,2,0.07
2012-10-1,63,56,49,57,53,48,97,90,79,29.59,29.32,8,1,8,0.04
2012-10-2,68,59,51,62,55,50,96,89,73,29.74,29.58,5,0,5,0.01
2012-10-3,64,61,59,62,60,57,96,95,93,29.86,29.72,2,0,2,0.20
2012-10-4,62,60,59,61,59,58,97,96,95,29.85,29.69,2,0,2,0.19
2012-10-5,79,64,58,68,60,55,97,86,59,29.70,29.57,4,0,4,0.00
2012-10-6,77,61,47,65,55,43,96,83,57,29.58,29.34,7,1,7,0.01
2012-10-7,57,49,40,46,43,37,93,80,61,29.74,29.57,3,0,3,0.11
2012-10-8,56,47,40,48,42,38,95,83,62,30.00,29.72,5,0,5,0.04
2012-10-9,57,48,39,49,44,36,94,86,73,30.00,29.83,5,0,5,0.00
2012-10-10,55,51,47,53,49,44,95,92,87,29.83,29.38,3,0,3,0.23
2012-10-11,61,49,41,47,39,34,90,70,41,29.77,29.44,9,1,9,0.00
2012-10-12,55,43,33,42,34,24,93,71,43,30.03,29.63,8,1,8,0.01
2012-10-13,58,40,26,34,28,23,89,65,34,30.12,29.96,5,1,5,0.00
2012-10-14,57,48,40,54,44,34,94,89,71,29.96,29.58,4,0,4,0.33
2012-10-15,70,57,44,65,54,42,97,92,77,29.58,29.27,5,0,5,0.44
2012-10-16,59,50,36,57,43,33,95,77,54,29.54,29.25,13,1,13,0.00
2012-10-17,66,46,32,46,37,29,94,73,39,29.68,29.54,3,0,3,0.00
2012-10-18,70,51,37,52,42,34,92,73,39,29.81,29.68,3,0,3,0.00
2012-10-19,62,56,45,59,54,41,96,93,87,29.79,29.42,6,1,6,0.61
2012-10-20,75,64,51,68,58,46,97,84,50,29.43,29.27,6,1,6,0.06
2012-10-21,64,52,39,49,43,37,94,74,47,29.54,29.40,9,1,9,0.00
2012-10-22,66,53,40,47,42,36,89,67,44,29.67,29.54,7,1,7,0.00
2012-10-23,65,50,40,46,41,36,91,74,46,29.80,29.66,10,1,10,0.00
2012-10-24,67,46,32,46,35,29,93,71,33,29.90,29.79,5,0,5,0.00
2012-10-25,68,51,38,49,42,33,87,72,43,29.98,29.90,5,1,5,0.00
2012-10-26,66,52,42,56,47,39,91,83,67,29.93,29.79,5,0,5,0.00
2012-10-27,72,55,46,60,50,43,93,82,63,29.81,29.68,4,0,4,0.00
2012-10-28,55,52,47,49,46,41,89,80,72,29.72,29.52,5,1,5,0.00
2012-10-29,59,54,50,57,52,47,94,91,88,29.52,29.01,18,4,18,0.37
2012-11-24,47,39,31,44,25,20,87,57,42,29.30,29.17,10,2,10,0.00
2012-11-25,38,32,26,21,18,12,73,58,35,29.49,29.29,10,2,10,0.00
2012-11-26,45,32,25,32,23,19,83,70,49,29.90,29.49,7,0,7,0.00
2012-11-27,37,29,21,30,24,17,87,82,74,29.98,29.90,2,0,2,0.00
2012-11-28,41,30,22,31,24,19,89,78,61,29.93,29.77,3,0,3,0.00
2012-11-29,45,34,22,29,24,18,88,68,48,29.89,29.74,8,1,8,0.00
2012-11-30,33,28,22,24,12,7,73,52,37,30.24,29.88,11,1,11,0.00
2012-12-1,28,26,24,25,19,8,87,75,48,30.32,30.18,1,0,1,0.00
2012-12-2,40,34,28,38,32,25,94,90,87,30.18,29.66,3,0,3,0.23
2012-12-3,55,41,30,49,38,27,96,87,67,29.98,29.65,8,0,8,0.00
2012-12-4,40,34,28,38,32,26,94,92,89,29.99,29.60,1,0,1,0.01
2012-12-5,54,42,31,47,36,20,96,79,61,29.80,29.48,10,1,10,0.08
2012-12-6,42,31,22,25,20,17,82,65,49,29.99,29.79,8,1,8,0.00
2012-12-7,38,30,21,32,26,17,90,84,75,29.96,29.71,3,0,3,0.10
2012-12-8,38,36,33,36,34,31,94,92,90,29.71,29.54,2,0,2,0.19
2012-12-9,46,36,31,38,32,27,95,87,70,29.97,29.61,5,0,5,0.00
2012-12-10,39,38,33,38,36,31,95,94,90,29.85,29.17,2,0,2,0.15
2012-12-11,43,38,31,41,34,25,96,87,77,29.82,29.23,6,0,6,0.03
2012-12-12,44,31,23,34,25,20,90,77,57,30.08,29.81,4,0,4,0.00
2012-12-13,46,29,20,37,24,18,92,81,60,30.13,29.93,3,0,3,0.00
2012-12-14,47,32,19,37,25,17,91,78,49,29.93,29.71,5,0,5,0.01
2012-12-15,44,32,24,30,21,13,83,65,40,30.02,29.82,5,0,5,0.00
2012-12-16,26,24,23,22,15,8,89,68,50,30.01,29.80,4,1,4,0.00
2012-12-17,33,29,25,31,27,22,93,90,88,29.80,29.53,5,0,5,0.00
2012-12-18,40,37,33,39,35,31,95,95,93,29.53,29.09,7,1,7,0.95
2012-12-19,46,38,34,38,34,29,95,85,70,29.71,29.11,8,1,8,0.04
2012-12-20,40,35,28,34,30,26,91,84,77,29.88,29.70,2,0,2,0.00
2012-12-21,52,41,33,50,38,30,96,92,85,29.71,28.71,17,2,17,0.83
2012-12-22,37,33,26,34,26,17,90,76,62,29.28,28.85,8,2,8,0.00
2012-12-23,42,31,22,27,20,14,75,66,48,29.48,29.28,6,1,6,0.00
2012-12-24,39,32,26,26,21,17,78,66,46,29.72,29.47,8,1,8,0.00
2012-12-25,34,27,21,28,21,15,85,78,73,29.90,29.66,6,0,6,0.01
2012-12-26,36,26,16,24,18,11,86,72,58,29.99,29.64,8,1,8,0.01
2012-12-27,34,30,27,31,28,24,92,89,86,29.64,29.07,8,1,8,0.01
2012-12-28,34,28,25,26,23,20,87,79,71,29.67,29.30,10,0,10,0.09
2012-12-29,30,25,19,26,22,15,91,87,80,29.67,29.15,2,0,2,0.00
2012-12-30,28,24,18,25,17,9,91,75,59,29.61,29.13,10,1,10,0.01
2012-12-31,34,26,17,25,19,9,81,75,65,29.64,29.39,8,1,8,0.00
2013-1-1,33,26,12,27,16,2,83,66,51,29.59,29.33,11,1,11,0.00